TimeCDT,TemperatureF,Dew PointF,Humidity,Sea Level PressureIn,VisibilityMPH,Wind Direction,Wind SpeedMPH,Gust SpeedMPH,PrecipitationIn,Events,Conditions,WindDirDegrees,DateUTC
12:15 AM,70.5,63.5,78,30.04,10.0,SE,3.5,-,N/A,,Clear,130,2013-07-25 05:15:00
12:35 AM,70.7,63.5,78,30.04,10.0,Calm,Calm,-,N/A,,Clear,0,2013-07-25 05:35:00
12:55 AM,70.5,63.5,78,30.05,10.0,Calm,Calm,-,N/A,,Clear,0,2013-07-25 05:55:00
1:15 AM,70.2,63.9,80,30.05,10.0,Calm,Calm,-,N/A,,Clear,0,2013-07-25 06:15:00
1:35 AM,69.3,64.4,84,30.06,10.0,Calm,Calm,-,N/A,,Clear,0,2013-07-25 06:35:00
1:55 AM,69.8,63.3,80,30.05,10.0,ESE,3.5,-,N/A,,Clear,120,2013-07-25 06:55:00
2:15 AM,69.8,63.1,79,30.05,10.0,Calm,Calm,-,N/A,,Clear,0,2013-07-25 07:15:00
2:35 AM,70.2,63.1,78,30.05,10.0,Calm,Calm,-,N/A,,Clear,0,2013-07-25 07:35:00
2:55 AM,69.6,63.0,79,30.04,10.0,Calm,Calm,-,N/A,,Clear,0,2013-07-25 07:55:00
3:15 AM,69.3,63.0,80,30.04,10.0,Calm,Calm,-,N/A,,Clear,0,2013-07-25 08:15:00
3:35 AM,70.0,63.0,78,30.05,10.0,Calm,Calm,-,N/A,,Clear,0,2013-07-25 08:35:00
3:55 AM,70.2,62.8,77,30.04,10.0,Calm,Calm,-,N/A,,Clear,0,2013-07-25 08:55:00
4:15 AM,69.8,62.4,77,30.05,10.0,SE,3.5,-,N/A,,Clear,130,2013-07-25 09:15:00
4:35 AM,69.8,62.6,78,30.05,10.0,SE,3.5,-,N/A,,Scattered Clouds,140,2013-07-25 09:35:00
4:55 AM,70.7,61.9,74,30.05,10.0,South,3.5,-,N/A,,Scattered Clouds,170,2013-07-25 09:55:00
5:15 AM,70.5,61.7,74,30.05,10.0,Calm,Calm,-,N/A,,Clear,0,2013-07-25 10:15:00
5:35 AM,70.9,61.7,73,30.05,10.0,SSE,3.5,-,N/A,,Scattered Clouds,160,2013-07-25 10:35:00
5:55 AM,69.8,61.7,75,30.04,10.0,Calm,Calm,-,N/A,,Clear,0,2013-07-25 10:55:00
6:15 AM,70.2,61.5,74,30.04,10.0,SE,4.6,-,N/A,,Clear,130,2013-07-25 11:15:00
6:35 AM,69.8,61.3,74,30.04,10.0,SE,4.6,-,N/A,,Scattered Clouds,140,2013-07-25 11:35:00
6:55 AM,70.9,61.3,72,30.04,10.0,South,4.6,-,N/A,,Scattered Clouds,170,2013-07-25 11:55:00
7:15 AM,70.7,61.3,72,30.05,10.0,SSE,4.6,-,N/A,,Clear,150,2013-07-25 12:15:00
7:35 AM,71.2,61.7,72,30.04,10.0,SSE,5.8,-,N/A,,Clear,150,2013-07-25 12:35:00
7:55 AM,71.6,61.3,70,30.05,10.0,South,4.6,-,N/A,,Scattered Clouds,190,2013-07-25 12:55:00
8:15 AM,72.0,61.9,70,30.05,10.0,South,4.6,-,N/A,,Clear,170,2013-07-25 13:15:00
8:35 AM,72.9,61.9,68,30.05,10.0,SSE,5.8,-,N/A,,Scattered Clouds,160,2013-07-25 13:35:00
8:55 AM,74.7,62.4,66,30.05,10.0,SSE,6.9,-,N/A,,Scattered Clouds,160,2013-07-25 13:55:00
9:15 AM,75.6,62.1,63,30.05,10.0,South,6.9,-,N/A,,Scattered Clouds,170,2013-07-25 14:15:00
9:35 AM,76.8,63.0,62,30.05,10.0,South,6.9,-,N/A,,Mostly Cloudy,170,2013-07-25 14:35:00
9:55 AM,77.2,63.1,62,30.04,10.0,South,6.9,-,N/A,,Mostly Cloudy,190,2013-07-25 14:55:00
10:15 AM,77.2,64.4,65,30.04,10.0,South,4.6,-,N/A,,Mostly Cloudy,190,2013-07-25 15:15:00
10:35 AM,77.0,64.6,65,30.03,10.0,South,6.9,-,N/A,,Mostly Cloudy,180,2013-07-25 15:35:00
10:55 AM,79.0,64.4,61,30.03,10.0,South,9.2,-,N/A,Rain,Rain,190,2013-07-25 15:55:00
11:15 AM,77.9,64.0,62,30.03,10.0,SSW,8.1,-,N/A,,Scattered Clouds,200,2013-07-25 16:15:00
11:35 AM,77.0,64.6,65,30.03,10.0,South,4.6,-,N/A,,Scattered Clouds,170,2013-07-25 16:35:00
11:55 AM,77.5,64.8,65,30.03,10.0,SSE,8.1,-,N/A,,Mostly Cloudy,150,2013-07-25 16:55:00
12:15 PM,77.7,65.1,65,30.03,10.0,South,5.8,-,N/A,,Mostly Cloudy,170,2013-07-25 17:15:00
12:35 PM,79.2,65.3,62,30.02,10.0,SSE,5.8,-,N/A,,Mostly Cloudy,160,2013-07-25 17:35:00
12:55 PM,79.7,65.3,61,30.02,10.0,South,6.9,-,N/A,,Mostly Cloudy,190,2013-07-25 17:55:00
1:15 PM,79.7,66.2,63,30.02,10.0,South,6.9,-,N/A,,Scattered Clouds,170,2013-07-25 18:15:00
1:35 PM,79.7,66.0,63,30.03,10.0,SSW,8.1,-,N/A,,Scattered Clouds,200,2013-07-25 18:35:00
1:55 PM,80.6,66.4,62,30.03,10.0,SW,11.5,-,N/A,,Scattered Clouds,230,2013-07-25 18:55:00
2:15 PM,80.8,66.0,61,30.03,10.0,SSW,10.4,-,N/A,,Clear,200,2013-07-25 19:15:00
2:35 PM,80.8,67.1,63,30.02,10.0,SSW,6.9,-,N/A,,Clear,200,2013-07-25 19:35:00
2:55 PM,81.3,65.3,58,30.02,10.0,SSW,9.2,16.1,N/A,,Clear,210,2013-07-25 19:55:00
3:15 PM,80.4,65.3,60,30.02,10.0,WSW,11.5,17.3,N/A,,Clear,240,2013-07-25 20:15:00
3:35 PM,79.2,64.8,61,30.02,7.0,SW,11.5,18.4,N/A,,Mostly Cloudy,220,2013-07-25 20:35:00
3:55 PM,79.3,63.7,59,30.01,10.0,South,6.9,-,N/A,,Mostly Cloudy,180,2013-07-25 20:55:00
4:15 PM,81.0,58.5,46,30.00,10.0,SSW,10.4,-,N/A,,Mostly Cloudy,200,2013-07-25 21:15:00
4:35 PM,80.2,59.4,49,30.01,10.0,South,12.7,19.6,N/A,,Mostly Cloudy,180,2013-07-25 21:35:00
4:55 PM,79.0,60.6,53,30.00,10.0,South,10.4,-,N/A,,Overcast,170,2013-07-25 21:55:00
5:15 PM,76.8,62.4,61,30.00,10.0,SSE,10.4,-,N/A,,Overcast,160,2013-07-25 22:15:00
5:35 PM,76.1,63.3,64,30.01,10.0,South,8.1,-,N/A,,Overcast,190,2013-07-25 22:35:00
5:55 PM,76.1,63.5,65,30.01,10.0,South,5.8,-,N/A,,Overcast,190,2013-07-25 22:55:00
6:15 PM,76.5,63.9,65,30.00,10.0,South,6.9,-,N/A,,Overcast,180,2013-07-25 23:15:00
6:35 PM,77.0,63.7,63,30.00,10.0,South,9.2,-,N/A,,Overcast,180,2013-07-25 23:35:00
6:55 PM,77.0,62.6,61,29.99,10.0,SSW,11.5,-,N/A,,Scattered Clouds,200,2013-07-25 23:55:00
7:15 PM,77.0,61.9,59,30.00,10.0,South,8.1,-,N/A,,Clear,190,2013-07-26 00:15:00
7:35 PM,76.6,63.1,63,30.01,10.0,SSW,3.5,-,N/A,,Clear,200,2013-07-26 00:35:00
7:55 PM,76.1,64.4,67,30.01,10.0,SSW,4.6,-,N/A,,Clear,200,2013-07-26 00:55:00
8:15 PM,75.4,64.9,70,30.01,10.0,South,4.6,-,N/A,Rain,Light Rain,190,2013-07-26 01:15:00
8:35 PM,74.1,66.4,77,30.01,7.0,Calm,Calm,-,0.01,Rain,Light Rain,0,2013-07-26 01:35:00
8:55 PM,71.8,67.6,87,30.01,10.0,Calm,Calm,-,0.02,Rain,Light Rain,0,2013-07-26 01:55:00
9:15 PM,71.4,68.0,89,30.01,10.0,Calm,Calm,-,N/A,,Overcast,0,2013-07-26 02:15:00
9:35 PM,71.6,68.0,88,30.02,10.0,Calm,Calm,-,N/A,,Overcast,0,2013-07-26 02:35:00
9:55 PM,71.1,68.9,93,30.02,10.0,Calm,Calm,-,N/A,,Overcast,0,2013-07-26 02:55:00
10:15 PM,71.1,68.5,92,30.02,10.0,Calm,Calm,-,N/A,Rain,Light Rain,0,2013-07-26 03:15:00
10:35 PM,70.7,68.5,93,30.02,10.0,Calm,Calm,-,N/A,,Mostly Cloudy,0,2013-07-26 03:35:00
10:55 PM,70.2,68.0,93,30.02,10.0,SE,3.5,-,N/A,,Scattered Clouds,130,2013-07-26 03:55:00
11:15 PM,70.5,67.1,89,30.02,10.0,Calm,Calm,-,N/A,,Clear,0,2013-07-26 04:15:00
11:35 PM,70.2,67.1,90,30.01,10.0,Calm,Calm,-,N/A,,Clear,0,2013-07-26 04:35:00
11:55 PM,70.9,67.5,89,30.01,10.0,South,3.5,-,N/A,,Clear,170,2013-07-26 04:55:00